Time,TemperatureF,DewpointF,PressureIn,WindDirection,WindDirectionDegrees,WindSpeedMPH,WindSpeedGustMPH,Humidity,HourlyPrecipIn,Conditions,Clouds,dailyrainin,SoftwareType,DateUTC
2013-06-09 00:02:00,77.9,61.5,29.83,ESE,105,0.0,0.0,57,0.00,,,0.00,VWS V14.01,2013-06-09 05:02:00,
2013-06-09 00:07:00,77.8,61.4,29.83,ESE,105,0.0,0.0,57,0.00,,,0.00,VWS V14.01,2013-06-09 05:07:00,
2013-06-09 00:12:00,77.8,61.4,29.83,ESE,105,0.0,0.0,57,0.00,,,0.00,VWS V14.01,2013-06-09 05:12:00,
2013-06-09 00:17:00,77.7,61.3,29.83,ESE,105,0.0,0.0,57,0.00,,,0.00,VWS V14.01,2013-06-09 05:17:00,
2013-06-09 00:22:00,77.7,61.3,29.83,ESE,105,0.0,0.0,57,0.00,,,0.00,VWS V14.01,2013-06-09 05:22:00,
2013-06-09 00:27:00,77.7,61.3,29.83,ESE,119,5.0,10.0,57,0.00,,,0.00,VWS V14.01,2013-06-09 05:27:00,
2013-06-09 00:32:00,77.8,61.9,29.83,ESE,107,4.0,7.0,58,0.00,,,0.00,VWS V14.01,2013-06-09 05:32:00,
2013-06-09 00:37:00,77.9,62.0,29.83,ESE,112,5.0,9.0,58,0.00,,,0.00,VWS V14.01,2013-06-09 05:37:00,
2013-06-09 00:42:00,78.0,62.0,29.82,ESE,117,3.0,9.0,58,0.00,,,0.00,VWS V14.01,2013-06-09 05:42:00,
2013-06-09 00:47:00,78.0,62.5,29.82,ESE,107,7.0,9.0,59,0.00,,,0.00,VWS V14.01,2013-06-09 05:47:00,
2013-06-09 00:52:00,77.9,62.4,29.82,ESE,105,4.0,8.0,59,0.00,,,0.00,VWS V14.01,2013-06-09 05:52:00,
2013-06-09 00:57:00,77.8,62.8,29.81,ESE,107,3.0,9.0,60,0.00,,,0.00,VWS V14.01,2013-06-09 05:57:00,
2013-06-09 01:02:00,77.6,62.6,29.81,ENE,64,4.0,8.0,60,0.00,,,0.00,VWS V14.01,2013-06-09 06:02:00,
2013-06-09 01:07:00,77.6,63.1,29.81,ESE,115,3.0,6.0,61,0.00,,,0.00,VWS V14.01,2013-06-09 06:07:00,
2013-06-09 01:12:00,77.5,63.5,29.81,SE,125,5.0,8.0,62,0.00,,,0.00,VWS V14.01,2013-06-09 06:12:00,
2013-06-09 01:17:00,77.4,63.4,29.82,ESE,118,1.0,7.0,62,0.00,,,0.00,VWS V14.01,2013-06-09 06:17:00,
2013-06-09 01:22:00,77.3,63.7,29.82,SE,135,5.0,8.0,63,0.00,,,0.00,VWS V14.01,2013-06-09 06:22:00,
2013-06-09 01:27:00,77.3,63.7,29.82,ESE,118,7.0,7.0,63,0.00,,,0.00,VWS V14.01,2013-06-09 06:27:00,
2013-06-09 01:32:00,77.1,64.0,29.82,SE,136,4.0,5.0,64,0.00,,,0.00,VWS V14.01,2013-06-09 06:32:00,
2013-06-09 01:37:00,77.1,64.0,29.82,SE,124,1.0,5.0,64,0.00,,,0.00,VWS V14.01,2013-06-09 06:37:00,
2013-06-09 01:42:00,77.0,64.3,29.82,SE,126,3.0,7.0,65,0.00,,,0.00,VWS V14.01,2013-06-09 06:42:00,
2013-06-09 01:47:00,76.9,64.2,29.82,SE,140,7.0,8.0,65,0.00,,,0.00,VWS V14.01,2013-06-09 06:47:00,
2013-06-09 01:52:00,76.8,64.6,29.82,ESE,115,9.0,9.0,66,0.00,,,0.00,VWS V14.01,2013-06-09 06:52:00,
2013-06-09 01:57:00,76.8,64.6,29.81,SE,129,2.0,9.0,66,0.00,,,0.00,VWS V14.01,2013-06-09 06:57:00,
2013-06-09 02:02:00,76.7,64.9,29.81,SE,125,5.0,11.0,67,0.00,,,0.00,VWS V14.01,2013-06-09 07:02:00,
2013-06-09 02:07:00,76.7,64.9,29.81,ESE,114,4.0,10.0,67,0.00,,,0.00,VWS V14.01,2013-06-09 07:07:00,
2013-06-09 02:12:00,76.6,64.8,29.81,South,174,3.0,8.0,67,0.00,,,0.00,VWS V14.01,2013-06-09 07:12:00,
2013-06-09 02:17:00,76.6,65.3,29.81,SE,139,4.0,7.0,68,0.00,,,0.00,VWS V14.01,2013-06-09 07:17:00,
2013-06-09 02:22:00,76.6,65.3,29.80,SE,133,5.0,10.0,68,0.00,,,0.00,VWS V14.01,2013-06-09 07:22:00,
2013-06-09 02:27:00,76.5,65.2,29.81,SE,137,3.0,7.0,68,0.00,,,0.00,VWS V14.01,2013-06-09 07:27:00,
2013-06-09 02:32:00,76.5,65.6,29.81,SSE,167,4.0,7.0,69,0.00,,,0.00,VWS V14.01,2013-06-09 07:32:00,
2013-06-09 02:37:00,76.4,65.9,29.81,SE,124,5.0,12.0,70,0.00,,,0.00,VWS V14.01,2013-06-09 07:37:00,
2013-06-09 02:42:00,76.4,66.3,29.81,SE,134,4.0,8.0,71,0.00,,,0.00,VWS V14.01,2013-06-09 07:42:00,
2013-06-09 02:47:00,76.3,66.6,29.81,SE,132,4.0,10.0,72,0.00,,,0.00,VWS V14.01,2013-06-09 07:47:00,
2013-06-09 02:52:00,76.3,66.6,29.80,ESE,119,2.0,3.0,72,0.00,,,0.00,VWS V14.01,2013-06-09 07:52:00,
2013-06-09 02:57:00,76.3,67.0,29.81,SE,126,4.0,6.0,73,0.00,,,0.00,VWS V14.01,2013-06-09 07:57:00,
2013-06-09 03:02:00,76.3,67.0,29.81,SSE,159,3.0,12.0,73,0.00,,,0.00,VWS V14.01,2013-06-09 08:02:00,
2013-06-09 03:07:00,76.4,67.5,29.81,SSW,199,2.0,8.0,74,0.00,,,0.00,VWS V14.01,2013-06-09 08:07:00,
2013-06-09 03:12:00,76.4,67.5,29.81,South,179,2.0,8.0,74,0.00,,,0.00,VWS V14.01,2013-06-09 08:12:00,
2013-06-09 03:17:00,76.4,67.9,29.82,SSE,163,2.0,8.0,75,0.00,,,0.00,VWS V14.01,2013-06-09 08:17:00,
2013-06-09 03:22:00,76.4,67.9,29.82,SE,126,4.0,5.0,75,0.00,,,0.00,VWS V14.01,2013-06-09 08:22:00,
2013-06-09 03:27:00,76.4,67.9,29.82,South,179,4.0,7.0,75,0.00,,,0.00,VWS V14.01,2013-06-09 08:27:00,
2013-06-09 03:32:00,76.4,67.9,29.82,South,169,5.0,8.0,75,0.00,,,0.00,VWS V14.01,2013-06-09 08:32:00,
2013-06-09 03:37:00,76.4,67.9,29.82,SE,130,8.0,8.0,75,0.00,,,0.00,VWS V14.01,2013-06-09 08:37:00,
2013-06-09 03:42:00,76.4,68.3,29.82,South,179,2.0,8.0,76,0.00,,,0.00,VWS V14.01,2013-06-09 08:42:00,
2013-06-09 03:47:00,76.3,68.2,29.82,South,175,2.0,9.0,76,0.00,,,0.00,VWS V14.01,2013-06-09 08:47:00,
2013-06-09 03:52:00,76.2,68.1,29.82,SE,141,7.0,10.0,76,0.00,,,0.00,VWS V14.01,2013-06-09 08:52:00,
2013-06-09 03:57:00,76.1,68.4,29.82,SW,219,5.0,9.0,77,0.00,,,0.00,VWS V14.01,2013-06-09 08:57:00,
2013-06-09 04:02:00,76.0,68.3,29.82,SSE,147,7.0,7.0,77,0.00,,,0.00,VWS V14.01,2013-06-09 09:02:00,
2013-06-09 04:07:00,75.9,68.2,29.81,South,174,2.0,6.0,77,0.00,,,0.00,VWS V14.01,2013-06-09 09:07:00,
2013-06-09 04:12:00,75.9,68.2,29.81,South,169,5.0,8.0,77,0.00,,,0.00,VWS V14.01,2013-06-09 09:12:00,
2013-06-09 04:17:00,75.8,68.5,29.82,SE,145,5.0,7.0,78,0.00,,,0.00,VWS V14.01,2013-06-09 09:17:00,
2013-06-09 04:22:00,75.8,68.5,29.82,SW,214,6.0,7.0,78,0.00,,,0.00,VWS V14.01,2013-06-09 09:22:00,
2013-06-09 04:27:00,75.8,68.5,29.82,SE,131,3.0,5.0,78,0.00,,,0.00,VWS V14.01,2013-06-09 09:27:00,
2013-06-09 04:32:00,75.8,68.5,29.82,SSE,158,1.0,6.0,78,0.00,,,0.00,VWS V14.01,2013-06-09 09:32:00,
2013-06-09 04:37:00,75.8,68.8,29.82,South,169,4.0,10.0,79,0.00,,,0.00,VWS V14.01,2013-06-09 09:37:00,
2013-06-09 04:42:00,75.9,68.9,29.82,SE,134,1.0,7.0,79,0.00,,,0.00,VWS V14.01,2013-06-09 09:42:00,
2013-06-09 04:47:00,75.9,68.9,29.82,South,177,2.0,8.0,79,0.00,,,0.00,VWS V14.01,2013-06-09 09:47:00,
2013-06-09 04:52:00,75.9,69.3,29.82,SE,146,2.0,11.0,80,0.00,,,0.00,VWS V14.01,2013-06-09 09:52:00,
2013-06-09 04:57:00,75.9,69.3,29.82,SW,219,3.0,8.0,80,0.00,,,0.00,VWS V14.01,2013-06-09 09:57:00,
2013-06-09 05:02:00,76.0,69.4,29.82,South,175,2.0,8.0,80,0.00,,,0.00,VWS V14.01,2013-06-09 10:02:00,
2013-06-09 05:07:00,76.0,69.8,29.82,SSW,192,5.0,9.0,81,0.00,,,0.00,VWS V14.01,2013-06-09 10:07:00,
2013-06-09 05:12:00,75.9,69.7,29.83,SSE,150,8.0,10.0,81,0.00,,,0.00,VWS V14.01,2013-06-09 10:12:00,
2013-06-09 05:17:00,76.0,69.8,29.83,SSW,206,2.0,5.0,81,0.00,,,0.00,VWS V14.01,2013-06-09 10:17:00,
2013-06-09 05:22:00,75.9,69.7,29.84,West,261,4.0,4.0,81,0.00,,,0.00,VWS V14.01,2013-06-09 10:22:00,
2013-06-09 05:27:00,75.9,70.0,29.85,WNW,290,6.0,7.0,82,0.00,,,0.00,VWS V14.01,2013-06-09 10:27:00,
2013-06-09 05:32:00,74.9,66.1,29.85,NNW,345,10.0,13.0,74,0.00,,,0.00,VWS V14.01,2013-06-09 10:32:00,
2013-06-09 05:37:00,74.1,64.9,29.86,WNW,293,3.0,9.0,73,0.00,,,0.00,VWS V14.01,2013-06-09 10:37:00,
2013-06-09 05:42:00,73.6,65.2,29.86,WNW,301,12.0,18.0,75,0.00,,,0.00,VWS V14.01,2013-06-09 10:42:00,
2013-06-09 05:47:00,73.0,65.0,29.85,NNW,347,10.0,18.0,76,0.00,,,0.00,VWS V14.01,2013-06-09 10:47:00,
2013-06-09 05:52:00,72.4,65.2,29.85,NNW,331,5.0,16.0,78,0.00,,,0.00,VWS V14.01,2013-06-09 10:52:00,
2013-06-09 05:57:00,72.0,65.1,29.86,WNW,301,11.0,16.0,79,0.00,,,0.00,VWS V14.01,2013-06-09 10:57:00,
2013-06-09 06:02:00,71.3,65.9,29.87,WNW,284,8.0,13.0,83,0.07,,,0.07,VWS V14.01,2013-06-09 11:02:00,
2013-06-09 06:07:00,70.6,65.9,29.87,NE,53,8.0,10.0,85,0.10,,,0.10,VWS V14.01,2013-06-09 11:07:00,
2013-06-09 06:12:00,70.0,66.0,29.88,North,355,4.0,9.0,87,0.16,,,0.16,VWS V14.01,2013-06-09 11:12:00,
2013-06-09 06:17:00,69.6,65.9,29.88,North,355,7.0,14.0,88,0.21,,,0.21,VWS V14.01,2013-06-09 11:17:00,
2013-06-09 06:22:00,69.2,65.8,29.89,West,271,3.0,11.0,89,0.26,,,0.26,VWS V14.01,2013-06-09 11:22:00,
2013-06-09 06:27:00,68.8,65.8,29.89,WNW,301,6.0,9.0,90,0.45,,,0.45,VWS V14.01,2013-06-09 11:27:00,
2013-06-09 06:32:00,68.5,65.8,29.89,NW,311,3.0,8.0,91,0.61,,,0.61,VWS V14.01,2013-06-09 11:32:00,
2013-06-09 06:37:00,68.3,65.6,29.90,NNW,343,1.0,7.0,91,0.78,,,0.78,VWS V14.01,2013-06-09 11:37:00,
2013-06-09 06:42:00,68.2,65.8,29.90,NNE,22,4.0,5.0,92,0.92,,,0.92,VWS V14.01,2013-06-09 11:42:00,
2013-06-09 06:47:00,68.1,65.7,29.90,North,360,2.0,4.0,92,1.01,,,1.01,VWS V14.01,2013-06-09 11:47:00,
2013-06-09 06:52:00,68.0,65.9,29.89,North,9,4.0,5.0,93,1.06,,,1.06,VWS V14.01,2013-06-09 11:52:00,
2013-06-09 06:57:00,68.0,65.9,29.88,North,5,5.0,9.0,93,1.11,,,1.11,VWS V14.01,2013-06-09 11:57:00,
2013-06-09 07:02:00,67.8,65.7,29.87,NNW,330,6.0,11.0,93,1.11,,,1.13,VWS V14.01,2013-06-09 12:02:00,
2013-06-09 07:07:00,67.7,65.6,29.88,NNE,13,3.0,6.0,93,1.04,,,1.13,VWS V14.01,2013-06-09 12:07:00,
2013-06-09 07:12:00,67.6,65.5,29.88,ENE,67,2.0,5.0,93,1.02,,,1.14,VWS V14.01,2013-06-09 12:12:00,
2013-06-09 07:17:00,67.5,65.4,29.89,East,92,2.0,5.0,93,0.95,,,1.14,VWS V14.01,2013-06-09 12:17:00,
2013-06-09 07:22:00,67.5,65.7,29.89,ENE,72,4.0,7.0,94,0.92,,,1.15,VWS V14.01,2013-06-09 12:22:00,
2013-06-09 07:27:00,67.5,65.7,29.89,East,86,3.0,8.0,94,0.81,,,1.16,VWS V14.01,2013-06-09 12:27:00,
2013-06-09 07:32:00,67.5,65.7,29.89,ESE,103,3.0,9.0,94,0.65,,,1.18,VWS V14.01,2013-06-09 12:32:00,
2013-06-09 07:37:00,67.4,65.6,29.89,East,89,5.0,8.0,94,0.48,,,1.18,VWS V14.01,2013-06-09 12:37:00,
2013-06-09 07:42:00,67.4,65.6,29.89,East,83,3.0,6.0,94,0.34,,,1.20,VWS V14.01,2013-06-09 12:42:00,
2013-06-09 07:47:00,67.3,65.5,29.89,East,88,0.0,3.0,94,0.25,,,1.22,VWS V14.01,2013-06-09 12:47:00,
2013-06-09 07:52:00,67.3,65.5,29.88,ENE,69,4.0,4.0,94,0.21,,,1.25,VWS V14.01,2013-06-09 12:52:00,
2013-06-09 07:57:00,67.2,65.4,29.86,ENE,74,4.0,7.0,94,0.18,,,1.27,VWS V14.01,2013-06-09 12:57:00,
2013-06-09 08:02:00,67.2,65.4,29.86,East,97,3.0,7.0,94,0.16,,,1.28,VWS V14.01,2013-06-09 13:02:00,
2013-06-09 08:07:00,67.2,65.4,29.86,ENE,66,1.0,5.0,94,0.16,,,1.29,VWS V14.01,2013-06-09 13:07:00,
2013-06-09 08:12:00,67.2,65.7,29.87,NE,43,1.0,5.0,95,0.16,,,1.30,VWS V14.01,2013-06-09 13:12:00,
2013-06-09 08:17:00,67.2,65.7,29.86,East,99,1.0,5.0,95,0.18,,,1.32,VWS V14.01,2013-06-09 13:17:00,
2013-06-09 08:22:00,67.3,65.8,29.84,East,87,5.0,8.0,95,0.18,,,1.33,VWS V14.01,2013-06-09 13:22:00,
2013-06-09 08:27:00,67.3,65.8,29.84,ENE,78,4.0,6.0,95,0.18,,,1.34,VWS V14.01,2013-06-09 13:27:00,
2013-06-09 08:32:00,67.3,65.8,29.83,SE,146,2.0,5.0,95,0.17,,,1.34,VWS V14.01,2013-06-09 13:32:00,
2013-06-09 08:37:00,67.4,65.9,29.83,ENE,70,3.0,5.0,95,0.16,,,1.34,VWS V14.01,2013-06-09 13:37:00,
2013-06-09 08:42:00,67.4,65.9,29.81,SE,142,6.0,10.0,95,0.16,,,1.35,VWS V14.01,2013-06-09 13:42:00,
2013-06-09 08:47:00,67.5,66.0,29.81,South,184,7.0,11.0,95,0.14,,,1.35,VWS V14.01,2013-06-09 13:47:00,
2013-06-09 08:52:00,67.6,66.4,29.82,SSE,153,13.0,16.0,96,0.12,,,1.35,VWS V14.01,2013-06-09 13:52:00,
2013-06-09 08:57:00,67.8,66.6,29.80,SE,143,16.0,17.0,96,0.09,,,1.35,VWS V14.01,2013-06-09 13:57:00,
2013-06-09 09:02:00,68.0,66.8,29.77,SE,134,12.0,24.0,96,0.09,,,1.36,VWS V14.01,2013-06-09 14:02:00,
2013-06-09 09:07:00,68.0,66.8,29.76,SSE,163,7.0,21.0,96,0.08,,,1.36,VWS V14.01,2013-06-09 14:07:00,
2013-06-09 09:12:00,68.0,66.8,29.76,SE,142,3.0,22.0,96,0.06,,,1.36,VWS V14.01,2013-06-09 14:12:00,
2013-06-09 09:17:00,68.1,66.9,29.79,WNW,284,5.0,9.0,96,0.05,,,1.36,VWS V14.01,2013-06-09 14:17:00,
2013-06-09 09:22:00,68.3,67.1,29.83,WSW,246,15.0,15.0,96,0.04,,,1.36,VWS V14.01,2013-06-09 14:22:00,
2013-06-09 09:27:00,68.2,66.7,29.82,NE,56,3.0,6.0,95,0.02,,,1.36,VWS V14.01,2013-06-09 14:27:00,
2013-06-09 09:32:00,68.2,66.7,29.84,NW,310,4.0,7.0,95,0.02,,,1.36,VWS V14.01,2013-06-09 14:32:00,
2013-06-09 09:37:00,68.4,67.2,29.84,South,169,3.0,3.0,96,0.02,,,1.36,VWS V14.01,2013-06-09 14:37:00,
2013-06-09 09:42:00,68.6,67.4,29.85,South,179,0.0,1.0,96,0.02,,,1.36,VWS V14.01,2013-06-09 14:42:00,
2013-06-09 09:47:00,69.0,67.8,29.87,East,98,3.0,5.0,96,0.01,,,1.36,VWS V14.01,2013-06-09 14:47:00,
2013-06-09 09:52:00,69.4,68.2,29.87,ESE,115,3.0,6.0,96,0.01,,,1.36,VWS V14.01,2013-06-09 14:52:00,
2013-06-09 09:57:00,69.6,68.4,29.87,South,190,2.0,7.0,96,0.01,,,1.36,VWS V14.01,2013-06-09 14:57:00,
2013-06-09 10:02:00,70.0,68.5,29.88,West,279,3.0,6.0,95,0.01,,,1.36,VWS V14.01,2013-06-09 15:02:00,
2013-06-09 10:07:00,70.8,69.6,29.89,West,263,8.0,10.0,96,0.00,,,1.36,VWS V14.01,2013-06-09 15:07:00,
2013-06-09 10:12:00,71.2,69.7,29.89,WSW,255,7.0,10.0,95,0.00,,,1.36,VWS V14.01,2013-06-09 15:12:00,
2013-06-09 10:17:00,71.2,69.4,29.89,WNW,284,6.0,12.0,94,0.00,,,1.36,VWS V14.01,2013-06-09 15:17:00,
2013-06-09 10:22:00,71.5,69.4,29.89,West,280,4.0,11.0,93,0.00,,,1.36,VWS V14.01,2013-06-09 15:22:00,
2013-06-09 10:27:00,72.2,69.8,29.89,West,264,7.0,10.0,92,0.00,,,1.36,VWS V14.01,2013-06-09 15:27:00,
2013-06-09 10:32:00,72.6,69.5,29.89,West,281,7.0,15.0,90,0.00,,,1.36,VWS V14.01,2013-06-09 15:32:00,
2013-06-09 10:37:00,73.1,69.0,29.89,WSW,258,9.0,13.0,87,0.00,,,1.36,VWS V14.01,2013-06-09 15:37:00,
2013-06-09 10:42:00,73.4,69.0,29.90,WSW,237,6.0,10.0,86,0.00,,,1.36,VWS V14.01,2013-06-09 15:42:00,
2013-06-09 10:47:00,74.0,69.2,29.90,SW,230,11.0,11.0,85,0.00,,,1.36,VWS V14.01,2013-06-09 15:47:00,
2013-06-09 10:52:00,74.4,68.9,29.90,West,259,9.0,12.0,83,0.00,,,1.36,VWS V14.01,2013-06-09 15:52:00,
2013-06-09 10:57:00,74.4,68.2,29.90,West,273,8.0,15.0,81,0.00,,,1.36,VWS V14.01,2013-06-09 15:57:00,
2013-06-09 11:02:00,75.0,68.8,29.90,WSW,252,11.0,12.0,81,0.00,,,1.36,VWS V14.01,2013-06-09 16:02:00,
2013-06-09 11:07:00,75.7,68.7,29.90,West,277,5.0,12.0,79,0.00,,,1.36,VWS V14.01,2013-06-09 16:07:00,
2013-06-09 11:12:00,76.2,68.5,29.90,SW,231,10.0,16.0,77,0.00,,,1.36,VWS V14.01,2013-06-09 16:12:00,
2013-06-09 11:17:00,76.7,68.6,29.90,West,270,9.0,11.0,76,0.00,,,1.36,VWS V14.01,2013-06-09 16:17:00,
2013-06-09 11:22:00,77.4,68.1,29.91,West,261,10.0,14.0,73,0.00,,,1.36,VWS V14.01,2013-06-09 16:22:00,
2013-06-09 11:27:00,77.9,67.8,29.91,West,281,7.0,9.0,71,0.00,,,1.36,VWS V14.01,2013-06-09 16:27:00,
2013-06-09 11:32:00,78.2,68.0,29.91,WNW,296,6.0,9.0,71,0.00,,,1.36,VWS V14.01,2013-06-09 16:32:00,
2013-06-09 11:37:00,78.6,69.2,29.91,West,265,8.0,9.0,73,0.00,,,1.36,VWS V14.01,2013-06-09 16:37:00,
2013-06-09 11:42:00,78.5,68.3,29.91,WNW,284,7.0,7.0,71,0.00,,,1.36,VWS V14.01,2013-06-09 16:42:00,
2013-06-09 11:47:00,79.0,68.0,29.91,NNW,343,2.0,9.0,69,0.00,,,1.36,VWS V14.01,2013-06-09 16:47:00,
2013-06-09 11:52:00,79.6,68.5,29.90,West,263,11.0,11.0,69,0.00,,,1.36,VWS V14.01,2013-06-09 16:52:00,
2013-06-09 11:57:00,79.8,67.9,29.90,WNW,284,5.0,10.0,67,0.00,,,1.36,VWS V14.01,2013-06-09 16:57:00,
2013-06-09 12:02:00,79.2,67.3,29.90,West,267,10.0,10.0,67,0.00,,,1.36,VWS V14.01,2013-06-09 17:02:00,
2013-06-09 12:07:00,78.7,67.7,29.90,West,280,4.0,8.0,69,0.00,,,1.36,VWS V14.01,2013-06-09 17:07:00,
2013-06-09 12:12:00,78.8,69.4,29.90,West,275,3.0,10.0,73,0.00,,,1.36,VWS V14.01,2013-06-09 17:12:00,
2013-06-09 12:17:00,79.5,69.3,29.90,WNW,282,5.0,10.0,71,0.00,,,1.36,VWS V14.01,2013-06-09 17:17:00,
2013-06-09 12:22:00,80.1,69.9,29.90,WNW,295,3.0,8.0,71,0.00,,,1.36,VWS V14.01,2013-06-09 17:22:00,
2013-06-09 12:27:00,80.1,67.3,29.90,West,260,6.0,11.0,65,0.00,,,1.36,VWS V14.01,2013-06-09 17:27:00,
2013-06-09 12:32:00,80.7,68.3,29.89,WNW,289,4.0,10.0,66,0.00,,,1.36,VWS V14.01,2013-06-09 17:32:00,
2013-06-09 12:37:00,81.4,68.1,29.89,NW,317,11.0,11.0,64,0.00,,,1.36,VWS V14.01,2013-06-09 17:37:00,
2013-06-09 12:42:00,81.6,68.2,29.89,WNW,301,7.0,9.0,64,0.00,,,1.36,VWS V14.01,2013-06-09 17:42:00,
2013-06-09 12:47:00,81.8,68.4,29.89,West,281,4.0,11.0,64,0.00,,,1.36,VWS V14.01,2013-06-09 17:47:00,
2013-06-09 12:52:00,81.9,69.4,29.89,West,269,6.0,10.0,66,0.00,,,1.36,VWS V14.01,2013-06-09 17:52:00,
2013-06-09 12:57:00,82.1,67.3,29.89,NW,304,7.0,11.0,61,0.00,,,1.36,VWS V14.01,2013-06-09 17:57:00,
2013-06-09 13:02:00,82.4,68.1,29.89,NW,306,4.0,9.0,62,0.00,,,1.36,VWS V14.01,2013-06-09 18:02:00,
2013-06-09 13:07:00,82.5,68.2,29.89,West,279,5.0,13.0,62,0.00,,,1.36,VWS V14.01,2013-06-09 18:07:00,
2013-06-09 13:12:00,82.5,67.7,29.89,WNW,301,6.0,14.0,61,0.00,,,1.36,VWS V14.01,2013-06-09 18:12:00,
2013-06-09 13:17:00,82.1,67.8,29.88,West,279,5.0,9.0,62,0.00,,,1.36,VWS V14.01,2013-06-09 18:17:00,
2013-06-09 13:22:00,82.2,68.4,29.88,West,267,5.0,10.0,63,0.00,,,1.36,VWS V14.01,2013-06-09 18:22:00,
2013-06-09 13:27:00,83.0,69.1,29.88,WNW,298,11.0,12.0,63,0.00,,,1.36,VWS V14.01,2013-06-09 18:27:00,
2013-06-09 13:32:00,83.0,68.2,29.88,NNW,341,5.0,10.0,61,0.00,,,1.36,VWS V14.01,2013-06-09 18:32:00,
2013-06-09 13:37:00,83.1,68.7,29.88,NW,320,2.0,8.0,62,0.00,,,1.36,VWS V14.01,2013-06-09 18:37:00,
2013-06-09 13:42:00,83.4,69.0,29.88,West,270,7.0,12.0,62,0.00,,,1.36,VWS V14.01,2013-06-09 18:42:00,
2013-06-09 13:47:00,83.6,68.3,29.87,North,360,3.0,11.0,60,0.00,,,1.36,VWS V14.01,2013-06-09 18:47:00,
2013-06-09 13:52:00,83.9,69.5,29.87,NNE,32,4.0,12.0,62,0.00,,,1.36,VWS V14.01,2013-06-09 18:52:00,
2013-06-09 13:57:00,83.9,69.0,29.87,North,351,3.0,9.0,61,0.00,,,1.36,VWS V14.01,2013-06-09 18:57:00,
2013-06-09 14:02:00,84.3,69.4,29.87,WSW,256,3.0,14.0,61,0.00,,,1.36,VWS V14.01,2013-06-09 19:02:00,
2013-06-09 14:07:00,85.1,69.7,29.87,West,268,8.0,11.0,60,0.00,,,1.36,VWS V14.01,2013-06-09 19:07:00,
2013-06-09 14:12:00,85.6,69.1,29.86,West,267,3.0,13.0,58,0.00,,,1.36,VWS V14.01,2013-06-09 19:12:00,
2013-06-09 14:17:00,85.8,69.3,29.86,WNW,298,6.0,7.0,58,0.00,,,1.36,VWS V14.01,2013-06-09 19:17:00,
2013-06-09 14:22:00,85.7,68.7,29.86,NW,320,7.0,12.0,57,0.00,,,1.36,VWS V14.01,2013-06-09 19:22:00,
2013-06-09 14:27:00,86.0,69.5,29.85,West,267,2.0,12.0,58,0.00,,,1.36,VWS V14.01,2013-06-09 19:27:00,
2013-06-09 14:32:00,86.3,70.3,29.85,WNW,284,5.0,13.0,59,0.00,,,1.36,VWS V14.01,2013-06-09 19:32:00,
2013-06-09 14:37:00,86.5,70.0,29.85,NW,323,5.0,10.0,58,0.00,,,1.36,VWS V14.01,2013-06-09 19:37:00,
2013-06-09 14:42:00,87.0,70.4,29.85,NW,326,3.0,7.0,58,0.00,,,1.36,VWS V14.01,2013-06-09 19:42:00,
2013-06-09 14:47:00,87.3,71.2,29.85,North,9,10.0,11.0,59,0.00,,,1.36,VWS V14.01,2013-06-09 19:47:00,
2013-06-09 14:52:00,87.0,69.9,29.85,NNW,333,9.0,10.0,57,0.00,,,1.36,VWS V14.01,2013-06-09 19:52:00,
2013-06-09 14:57:00,86.7,70.2,29.85,NNW,343,6.0,10.0,58,0.00,,,1.36,VWS V14.01,2013-06-09 19:57:00,
2013-06-09 15:02:00,86.5,69.5,29.85,North,355,6.0,9.0,57,0.00,,,1.36,VWS V14.01,2013-06-09 20:02:00,
2013-06-09 15:07:00,86.6,69.6,29.85,NW,319,5.0,12.0,57,0.00,,,1.36,VWS V14.01,2013-06-09 20:07:00,
2013-06-09 15:12:00,86.5,70.5,29.85,NNW,336,4.0,6.0,59,0.00,,,1.36,VWS V14.01,2013-06-09 20:12:00,
2013-06-09 15:17:00,87.3,71.7,29.85,North,5,3.0,8.0,60,0.00,,,1.36,VWS V14.01,2013-06-09 20:17:00,
2013-06-09 15:22:00,87.6,70.5,29.84,East,80,1.0,4.0,57,0.00,,,1.36,VWS V14.01,2013-06-09 20:22:00,
2013-06-09 15:27:00,87.8,70.2,29.85,NNW,348,8.0,8.0,56,0.00,,,1.36,VWS V14.01,2013-06-09 20:27:00,
2013-06-09 15:32:00,88.0,70.3,29.84,North,5,6.0,8.0,56,0.00,,,1.36,VWS V14.01,2013-06-09 20:32:00,
2013-06-09 15:37:00,88.0,70.3,29.84,North,5,2.0,9.0,56,0.00,,,1.36,VWS V14.01,2013-06-09 20:37:00,
2013-06-09 15:42:00,88.1,70.4,29.84,NNW,339,4.0,10.0,56,0.00,,,1.36,VWS V14.01,2013-06-09 20:42:00,
2013-06-09 15:47:00,88.2,70.5,29.84,North,11,0.0,7.0,56,0.00,,,1.36,VWS V14.01,2013-06-09 20:47:00,
2013-06-09 15:52:00,88.6,70.4,29.84,North,5,3.0,6.0,55,0.00,,,1.36,VWS V14.01,2013-06-09 20:52:00,
2013-06-09 15:57:00,88.9,70.7,29.84,NNE,17,4.0,8.0,55,0.00,,,1.36,VWS V14.01,2013-06-09 20:57:00,
2013-06-09 16:02:00,89.0,69.7,29.84,North,360,5.0,8.0,53,0.00,,,1.36,VWS V14.01,2013-06-09 21:02:00,
2013-06-09 16:07:00,89.1,71.4,29.84,WNW,290,3.0,5.0,56,0.00,,,1.36,VWS V14.01,2013-06-09 21:07:00,
2013-06-09 16:12:00,89.6,71.3,29.84,SW,234,0.0,2.0,55,0.00,,,1.36,VWS V14.01,2013-06-09 21:12:00,
2013-06-09 16:17:00,89.9,70.5,29.84,NNE,30,3.0,7.0,53,0.00,,,1.36,VWS V14.01,2013-06-09 21:17:00,
2013-06-09 16:22:00,90.2,71.3,29.84,NNW,339,1.0,3.0,54,0.00,,,1.36,VWS V14.01,2013-06-09 21:22:00,
2013-06-09 16:27:00,90.6,69.4,29.84,ENE,65,2.0,6.0,50,0.00,,,1.36,VWS V14.01,2013-06-09 21:27:00,
2013-06-09 16:32:00,90.6,70.6,29.84,NNW,348,3.0,6.0,52,0.00,,,1.36,VWS V14.01,2013-06-09 21:32:00,
2013-06-09 16:37:00,90.4,69.8,29.83,NNE,26,1.0,4.0,51,0.00,,,1.36,VWS V14.01,2013-06-09 21:37:00,
2013-06-09 16:42:00,90.3,69.7,29.83,NNW,346,7.0,7.0,51,0.00,,,1.36,VWS V14.01,2013-06-09 21:42:00,
2013-06-09 16:47:00,90.1,70.1,29.83,NE,52,6.0,10.0,52,0.00,,,1.36,VWS V14.01,2013-06-09 21:47:00,
2013-06-09 16:52:00,90.0,70.0,29.83,NNE,26,3.0,9.0,52,0.00,,,1.36,VWS V14.01,2013-06-09 21:52:00,
2013-06-09 16:57:00,90.0,69.5,29.83,NE,43,5.0,6.0,51,0.00,,,1.36,VWS V14.01,2013-06-09 21:57:00,
2013-06-09 17:02:00,89.9,70.5,29.83,NE,38,4.0,4.0,53,0.00,,,1.36,VWS V14.01,2013-06-09 22:02:00,
2013-06-09 17:07:00,90.0,70.6,29.83,WNW,302,4.0,6.0,53,0.00,,,1.36,VWS V14.01,2013-06-09 22:07:00,
2013-06-09 17:12:00,90.2,70.2,29.83,NW,318,0.0,6.0,52,0.00,,,1.36,VWS V14.01,2013-06-09 22:12:00,
2013-06-09 17:17:00,90.4,70.4,29.83,SW,214,2.0,3.0,52,0.00,,,1.36,VWS V14.01,2013-06-09 22:17:00,
2013-06-09 17:22:00,90.5,70.5,29.83,SW,227,0.0,3.0,52,0.00,,,1.36,VWS V14.01,2013-06-09 22:22:00,
2013-06-09 17:27:00,90.9,69.7,29.83,NE,49,2.0,7.0,50,0.00,,,1.36,VWS V14.01,2013-06-09 22:27:00,
2013-06-09 17:32:00,91.0,69.8,29.83,NNE,28,3.0,7.0,50,0.00,,,1.36,VWS V14.01,2013-06-09 22:32:00,
2013-06-09 17:37:00,90.8,69.0,29.83,NW,311,3.0,5.0,49,0.00,,,1.36,VWS V14.01,2013-06-09 22:37:00,
2013-06-09 17:42:00,90.6,69.4,29.83,NNE,26,3.0,4.0,50,0.00,,,1.36,VWS V14.01,2013-06-09 22:42:00,
2013-06-09 17:47:00,90.5,69.3,29.83,ENE,69,2.0,3.0,50,0.00,,,1.36,VWS V14.01,2013-06-09 22:47:00,
2013-06-09 17:52:00,90.5,70.5,29.83,NNE,33,3.0,7.0,52,0.00,,,1.36,VWS V14.01,2013-06-09 22:52:00,
2013-06-09 17:57:00,90.4,69.2,29.82,NNW,347,1.0,3.0,50,0.00,,,1.36,VWS V14.01,2013-06-09 22:57:00,
2013-06-09 18:02:00,90.4,69.2,29.82,North,350,3.0,7.0,50,0.00,,,1.36,VWS V14.01,2013-06-09 23:02:00,
2013-06-09 18:07:00,90.4,68.7,29.82,North,351,3.0,5.0,49,0.00,,,1.36,VWS V14.01,2013-06-09 23:07:00,
2013-06-09 18:12:00,90.3,68.6,29.82,ENE,73,2.0,7.0,49,0.00,,,1.36,VWS V14.01,2013-06-09 23:12:00,
2013-06-09 18:17:00,90.3,68.0,29.82,ENE,76,2.0,7.0,48,0.00,,,1.36,VWS V14.01,2013-06-09 23:17:00,
2013-06-09 18:22:00,90.4,68.7,29.82,NNE,17,3.0,4.0,49,0.00,,,1.36,VWS V14.01,2013-06-09 23:22:00,
2013-06-09 18:27:00,90.1,68.4,29.82,NNE,30,1.0,7.0,49,0.00,,,1.36,VWS V14.01,2013-06-09 23:27:00,
2013-06-09 18:32:00,89.9,68.2,29.82,NE,38,5.0,7.0,49,0.00,,,1.36,VWS V14.01,2013-06-09 23:32:00,
2013-06-09 18:37:00,89.8,67.5,29.83,NNE,28,3.0,8.0,48,0.00,,,1.36,VWS V14.01,2013-06-09 23:37:00,
2013-06-09 18:42:00,89.7,68.6,29.83,NNW,336,8.0,8.0,50,0.00,,,1.36,VWS V14.01,2013-06-09 23:42:00,
2013-06-09 18:47:00,89.5,67.8,29.83,North,5,4.0,7.0,49,0.00,,,1.36,VWS V14.01,2013-06-09 23:47:00,
2013-06-09 18:52:00,89.3,68.2,29.83,ENE,77,4.0,6.0,50,0.00,,,1.36,VWS V14.01,2013-06-09 23:52:00,
2013-06-09 18:57:00,89.2,68.2,29.83,NNE,19,1.0,4.0,50,0.00,,,1.36,VWS V14.01,2013-06-09 23:57:00,
2013-06-09 19:02:00,89.2,67.6,29.83,NW,322,4.0,5.0,49,0.00,,,1.36,VWS V14.01,2013-06-10 00:02:00,
2013-06-09 19:07:00,89.0,67.4,29.82,East,82,1.0,4.0,49,0.00,,,1.36,VWS V14.01,2013-06-10 00:07:00,
2013-06-09 19:12:00,89.0,66.8,29.82,NNE,15,1.0,6.0,48,0.00,,,1.36,VWS V14.01,2013-06-10 00:12:00,
2013-06-09 19:17:00,89.0,67.4,29.82,East,89,3.0,5.0,49,0.00,,,1.36,VWS V14.01,2013-06-10 00:17:00,
2013-06-09 19:22:00,89.0,68.0,29.82,North,5,1.0,5.0,50,0.00,,,1.36,VWS V14.01,2013-06-10 00:22:00,
2013-06-09 19:27:00,89.0,67.4,29.82,North,350,3.0,4.0,49,0.00,,,1.36,VWS V14.01,2013-06-10 00:27:00,
2013-06-09 19:32:00,88.8,67.2,29.82,North,355,3.0,4.0,49,0.00,,,1.36,VWS V14.01,2013-06-10 00:32:00,
2013-06-09 19:37:00,88.8,67.2,29.82,NNW,337,0.0,2.0,49,0.00,,,1.36,VWS V14.01,2013-06-10 00:37:00,
2013-06-09 19:42:00,88.8,67.2,29.82,NNW,337,2.0,3.0,49,0.00,,,1.36,VWS V14.01,2013-06-10 00:42:00,
2013-06-09 19:47:00,88.7,67.1,29.82,NNW,337,1.0,2.0,49,0.00,,,1.36,VWS V14.01,2013-06-10 00:47:00,
2013-06-09 19:52:00,88.5,67.5,29.82,NNW,337,1.0,1.0,50,0.00,,,1.36,VWS V14.01,2013-06-10 00:52:00,
2013-06-09 19:57:00,88.4,67.4,29.82,NNW,337,0.0,2.0,50,0.00,,,1.36,VWS V14.01,2013-06-10 00:57:00,
2013-06-09 20:02:00,88.4,67.4,29.82,NNW,337,0.0,1.0,50,0.00,,,1.36,VWS V14.01,2013-06-10 01:02:00,
2013-06-09 20:07:00,88.3,67.9,29.82,NNW,337,0.0,1.0,51,0.00,,,1.36,VWS V14.01,2013-06-10 01:07:00,
2013-06-09 20:12:00,88.1,68.3,29.82,NNW,337,1.0,1.0,52,0.00,,,1.36,VWS V14.01,2013-06-10 01:12:00,
2013-06-09 20:17:00,87.7,68.5,29.82,NNW,337,0.0,0.0,53,0.00,,,1.36,VWS V14.01,2013-06-10 01:17:00,
2013-06-09 20:22:00,87.4,68.7,29.82,NNW,337,0.0,0.0,54,0.00,,,1.36,VWS V14.01,2013-06-10 01:22:00,
2013-06-09 20:27:00,86.9,68.8,29.82,NNW,337,0.0,0.0,55,0.00,,,1.36,VWS V14.01,2013-06-10 01:27:00,
2013-06-09 20:32:00,86.4,69.4,29.83,East,90,0.0,3.0,57,0.00,,,1.36,VWS V14.01,2013-06-10 01:32:00,
2013-06-09 20:37:00,85.8,68.8,29.83,East,90,0.0,2.0,57,0.00,,,1.36,VWS V14.01,2013-06-10 01:37:00,
2013-06-09 20:42:00,85.1,68.7,29.83,ESE,102,2.0,3.0,58,0.00,,,1.36,VWS V14.01,2013-06-10 01:42:00,
2013-06-09 20:47:00,84.5,68.1,29.83,ESE,109,3.0,4.0,58,0.00,,,1.36,VWS V14.01,2013-06-10 01:47:00,
2013-06-09 20:52:00,84.1,68.2,29.83,East,98,3.0,3.0,59,0.00,,,1.36,VWS V14.01,2013-06-10 01:52:00,
2013-06-09 20:57:00,83.5,68.2,29.84,East,97,1.0,3.0,60,0.00,,,1.36,VWS V14.01,2013-06-10 01:57:00,
2013-06-09 21:02:00,83.1,67.8,29.84,ESE,105,1.0,3.0,60,0.00,,,1.36,VWS V14.01,2013-06-10 02:02:00,
2013-06-09 21:07:00,82.7,67.9,29.84,ESE,105,1.0,3.0,61,0.00,,,1.36,VWS V14.01,2013-06-10 02:07:00,
2013-06-09 21:12:00,82.4,68.1,29.84,East,98,0.0,1.0,62,0.00,,,1.36,VWS V14.01,2013-06-10 02:12:00,
2013-06-09 21:17:00,82.1,68.3,29.85,East,98,0.0,2.0,63,0.00,,,1.36,VWS V14.01,2013-06-10 02:17:00,
2013-06-09 21:22:00,81.8,68.0,29.85,East,98,0.0,1.0,63,0.00,,,1.36,VWS V14.01,2013-06-10 02:22:00,
2013-06-09 21:27:00,81.4,68.1,29.85,East,98,0.0,2.0,64,0.00,,,1.36,VWS V14.01,2013-06-10 02:27:00,
2013-06-09 21:32:00,81.1,68.2,29.85,East,98,0.0,2.0,65,0.00,,,1.36,VWS V14.01,2013-06-10 02:32:00,
2013-06-09 21:37:00,80.8,68.4,29.85,East,98,0.0,2.0,66,0.00,,,1.36,VWS V14.01,2013-06-10 02:37:00,
2013-06-09 21:42:00,80.4,68.4,29.85,East,98,0.0,2.0,67,0.00,,,1.36,VWS V14.01,2013-06-10 02:42:00,
2013-06-09 21:47:00,80.2,68.3,29.86,East,98,0.0,2.0,67,0.00,,,1.36,VWS V14.01,2013-06-10 02:47:00,
2013-06-09 21:52:00,79.9,68.0,29.86,East,98,0.0,1.0,67,0.00,,,1.36,VWS V14.01,2013-06-10 02:52:00,
2013-06-09 21:57:00,79.6,68.1,29.86,East,98,0.0,1.0,68,0.00,,,1.36,VWS V14.01,2013-06-10 02:57:00,
2013-06-09 22:02:00,79.3,67.8,29.86,East,98,0.0,0.0,68,0.00,,,1.36,VWS V14.01,2013-06-10 03:02:00,
2013-06-09 22:07:00,79.1,68.1,29.87,East,98,0.0,0.0,69,0.00,,,1.36,VWS V14.01,2013-06-10 03:07:00,
2013-06-09 22:12:00,78.8,67.8,29.87,East,98,0.0,0.0,69,0.00,,,1.36,VWS V14.01,2013-06-10 03:12:00,
2013-06-09 22:17:00,78.6,67.6,29.87,East,98,0.0,0.0,69,0.00,,,1.36,VWS V14.01,2013-06-10 03:17:00,
2013-06-09 22:22:00,78.3,67.7,29.87,East,98,0.0,0.0,70,0.00,,,1.36,VWS V14.01,2013-06-10 03:22:00,
2013-06-09 22:27:00,78.1,67.5,29.88,East,98,0.0,0.0,70,0.00,,,1.36,VWS V14.01,2013-06-10 03:27:00,
2013-06-09 22:32:00,77.8,67.2,29.88,East,98,0.0,0.0,70,0.00,,,1.36,VWS V14.01,2013-06-10 03:32:00,
2013-06-09 22:37:00,77.6,67.5,29.88,East,98,0.0,0.0,71,0.00,,,1.36,VWS V14.01,2013-06-10 03:37:00,
2013-06-09 22:42:00,77.4,67.3,29.88,East,98,0.0,0.0,71,0.00,,,1.36,VWS V14.01,2013-06-10 03:42:00,
2013-06-09 22:47:00,77.1,67.0,29.88,East,98,0.0,0.0,71,0.00,,,1.36,VWS V14.01,2013-06-10 03:47:00,
2013-06-09 22:52:00,76.9,67.2,29.88,East,98,0.0,0.0,72,0.00,,,1.36,VWS V14.01,2013-06-10 03:52:00,
2013-06-09 22:57:00,76.7,67.0,29.88,East,98,0.0,0.0,72,0.00,,,1.36,VWS V14.01,2013-06-10 03:57:00,
2013-06-09 23:01:00,76.6,66.9,29.88,East,98,0.0,0.0,72,0.00,,,1.36,VWS V14.01,2013-06-10 04:01:00,
2013-06-09 23:06:00,76.3,67.0,29.88,East,98,0.0,0.0,73,0.00,,,1.36,VWS V14.01,2013-06-10 04:06:00,
2013-06-09 23:11:00,76.1,66.8,29.88,East,98,0.0,0.0,73,0.00,,,1.36,VWS V14.01,2013-06-10 04:11:00,
2013-06-09 23:16:00,75.9,67.0,29.89,East,98,0.0,0.0,74,0.00,,,1.36,VWS V14.01,2013-06-10 04:16:00,
2013-06-09 23:21:00,75.7,66.8,29.89,East,98,0.0,0.0,74,0.00,,,1.36,VWS V14.01,2013-06-10 04:21:00,
2013-06-09 23:26:00,75.5,67.0,29.89,East,98,0.0,0.0,75,0.00,,,1.36,VWS V14.01,2013-06-10 04:26:00,
2013-06-09 23:31:00,75.3,66.8,29.89,East,98,0.0,0.0,75,0.00,,,1.36,VWS V14.01,2013-06-10 04:31:00,
2013-06-09 23:36:00,75.2,67.1,29.89,East,98,0.0,0.0,76,0.00,,,1.36,VWS V14.01,2013-06-10 04:36:00,
2013-06-09 23:41:00,75.0,66.9,29.89,East,98,0.0,0.0,76,0.00,,,1.36,VWS V14.01,2013-06-10 04:41:00,
2013-06-09 23:46:00,74.8,66.7,29.89,East,98,0.0,0.0,76,0.00,,,1.36,VWS V14.01,2013-06-10 04:46:00,
2013-06-09 23:51:00,74.7,67.0,29.89,East,98,0.0,0.0,77,0.00,,,1.36,VWS V14.01,2013-06-10 04:51:00,
2013-06-09 23:56:00,74.5,66.8,29.89,East,98,0.0,0.0,77,0.00,,,1.36,VWS V14.01,2013-06-10 04:56:00,